Weather History for Montpelier, VT

Change the Weather History Date:

Friday, October 7, 2011

  Actual Average Record
Temperature  
Mean Temperature 47 °F 49 °F  
Max Temperature 64 °F 60 °F 83 °F (1963)
Min Temperature 30 °F 38 °F 22 °F (1964)
Degree Days  
Heating Degree Days 18 16  
Month to date heating degree days 112 106  
Since 1 July heating degree days 276 461  
Cooling Degree Days 0 0  
Month to date cooling degree days 0 0  
Year to date cooling degree days 308 263  
Moisture  
Dew Point 34 °F    
Average Humidity 70    
Maximum Humidity 100    
Minimum Humidity 39    
Precipitation  
Precipitation 0.00 in 0.12 in 2.28 in (1972)
Month to date precipitation 1.17 0.82  
Year to date precipitation 47.05 28.74  
Sea Level Pressure  
Sea Level Pressure 30.45 in    
Wind  
Wind Speed 1 mph (West)    
Max Wind Speed 7 mph    
Max Gust Speed 10 mph    
Visibility 7 miles    
Events Fog    
T = Trace of Precipitation, MM = Missing Value Source: NWS Daily Summary

Daily Weather History Graph

Daily Weather History Graph

Search for Another Location

Airport:

Trip Planner

Search our weather history database for the weather conditions in past years. The results will help you decide how hot, cold, wet, or windy it might be!

Date:

Astronomy

Oct. 07, 2011 Rise Set
Actual Time 6:54 AM EDT 6:20 PM EDT
Civil Twilight 6:25 AM EDT 6:49 PM EDT
Nautical Twilight 5:52 AM EDT 7:23 PM EDT
Astronomical Twilight 5:18 AM EDT 7:56 PM EDT
Moon 4:09 PM EDT (10/7) 2:32 AM EDT (10/7)
Length of Visible Light 12h 23m
Length of Day
11h 25m
Waxing Gibbous, 83% of the Moon is Illuminated
Oct 7
Waxing Gibbous
Oct 11
Full
Oct 19
Last Quarter
Oct 26
New
Nov 2
First Quarter

Hourly Weather History & Observations

Time (EDT) Temp. Windchill Dew Point Humidity Pressure Visibility Wind Dir Wind Speed Gust Speed Precip Events Conditions
12:51 AM 33.1 °F - 30.9 °F 92% 30.43 in 10.0 mi Calm Calm - N/A   Clear
1:51 AM 30.9 °F - 30.0 °F 96% 30.43 in 10.0 mi Calm Calm - N/A   Partly Cloudy
2:51 AM 30.9 °F - 30.0 °F 96% 30.43 in 10.0 mi Calm Calm - N/A   Clear
3:51 AM 30.9 °F - 28.9 °F 92% 30.43 in 10.0 mi Calm Calm - N/A   Clear
4:01 AM 30.2 °F - 28.4 °F 93% 30.40 in 10.0 mi Calm Calm - N/A   Scattered Clouds
4:07 AM 30.2 °F - 30.2 °F 100% 30.40 in 2.0 mi Calm Calm - N/A   Mostly Cloudy
4:09 AM 30.2 °F - 30.2 °F 100% 30.40 in 1.2 mi Calm Calm - N/A   Mostly Cloudy
4:15 AM 30.2 °F - 30.2 °F 100% 30.41 in 0.8 mi Calm Calm - N/A   Mist
4:51 AM 30.9 °F - 30.0 °F 96% 30.45 in 0.2 mi Calm Calm - N/A Fog Light Freezing Fog
5:24 AM 30.2 °F - 30.2 °F 100% 30.42 in 1.0 mi Calm Calm - N/A   Mist
5:27 AM 30.2 °F - 28.4 °F 93% 30.42 in 1.5 mi Calm Calm - N/A   Overcast
5:33 AM 30.2 °F - 28.4 °F 93% 30.42 in 3.0 mi Calm Calm - N/A   Mostly Cloudy
5:46 AM 30.2 °F - 30.2 °F 100% 30.43 in 7.0 mi Calm Calm - N/A   Scattered Clouds
5:51 AM 30.9 °F - 30.0 °F 96% 30.47 in 0.5 mi Calm Calm - N/A Fog Light Freezing Fog
6:12 AM 30.2 °F - 30.2 °F 100% 30.43 in 1.2 mi Calm Calm - N/A   Mostly Cloudy
6:16 AM 30.2 °F - 30.2 °F 100% 30.43 in 0.8 mi Calm Calm - N/A   Mist
6:51 AM 30.0 °F - 30.0 °F 100% 30.48 in 0.2 mi Calm Calm - N/A Fog Light Freezing Fog
7:39 AM 30.2 °F - 30.2 °F 100% 30.46 in 1.2 mi Calm Calm - N/A   Mostly Cloudy
7:42 AM 30.2 °F - 30.2 °F 100% 30.46 in 2.0 mi Calm Calm - N/A   Mostly Cloudy
7:47 AM 30.2 °F - 30.2 °F 100% 30.46 in 10.0 mi Calm Calm - N/A   Scattered Clouds
7:51 AM 30.2 °F - 30.2 °F 100% 30.46 in 10.0 mi Calm Calm - N/A   Scattered Clouds
8:51 AM 33.1 °F - 33.1 °F 100% 30.52 in 10.0 mi Calm Calm - N/A   Partly Cloudy
9:51 AM 39.0 °F - 37.0 °F 93% 30.52 in 10.0 mi Calm Calm - N/A   Clear
10:51 AM 48.9 °F - 36.0 °F 61% 30.51 in 10.0 mi Calm Calm - N/A   Clear
11:51 AM 54.0 °F - 34.0 °F 47% 30.49 in 10.0 mi NW 5.8 mph - N/A   Scattered Clouds
12:51 PM 57.0 °F - 32.0 °F 39% 30.47 in 10.0 mi Variable 3.5 mph - N/A   Clear
1:51 PM 61.0 °F - 36.0 °F 39% 30.45 in 10.0 mi NNW 4.6 mph - N/A   Clear
2:51 PM 62.1 °F - 37.0 °F 39% 30.45 in 10.0 mi NNW 4.6 mph - N/A   Clear
3:51 PM 63.0 °F - 39.0 °F 41% 30.44 in 10.0 mi Calm Calm - N/A   Clear
4:51 PM 63.0 °F - 41.0 °F 45% 30.43 in 10.0 mi WNW 4.6 mph - N/A   Clear
5:51 PM 55.9 °F - 46.0 °F 69% 30.43 in 10.0 mi South 4.6 mph - N/A   Clear
6:51 PM 50.0 °F - 44.1 °F 80% 30.44 in 10.0 mi SSW 3.5 mph - N/A   Clear
7:51 PM 50.0 °F - 44.1 °F 80% 30.45 in 10.0 mi Calm Calm - N/A   Clear
8:51 PM 46.9 °F - 43.0 °F 86% 30.45 in 10.0 mi Calm Calm - N/A   Clear
9:51 PM 46.0 °F 44.8 °F 43.0 °F 89% 30.45 in 10.0 mi South 3.5 mph - N/A   Clear
10:51 PM 44.1 °F - 42.1 °F 93% 30.45 in 10.0 mi Calm Calm - N/A   Clear
11:51 PM 43.0 °F - 42.1 °F 97% 30.45 in 10.0 mi Calm Calm - N/A   Clear